CW5020 Weather Reports


Display with metric or nautical units.
time (UTC)temp
F
wind
direction
speed
MPH
gust
MPH
rain 1hr
in
rain 24hr
in
rain mn
in
humidity
%
barometer
mb
20260509200013 74 287 4.0 18.0 0.00 0.00 0.00 31 1004.0
20260509195504 73 267 3.0 10.0 0.00 0.00 0.00 32 1004.1
20260509195006 72 192 3.0 11.0 0.00 0.00 0.00 32 1004.1
20260509194504 72 284 5.0 12.0 0.00 0.00 0.00 30 1004.1
20260509194005 71 201 5.0 12.0 0.00 0.00 0.00 31 1004.0
20260509193505 71 242 4.0 14.0 0.00 0.00 0.00 32 1004.1
20260509193006 71 294 4.0 14.0 0.00 0.00 0.00 32 1004.2
20260509192504 72 326 4.0 14.0 0.00 0.00 0.00 31 1004.1
20260509192005 71 236 3.0 13.0 0.00 0.00 0.00 34 1004.1
20260509191005 71 269 5.0 17.0 0.00 0.00 0.00 32 1004.2
20260509190006 72 212 3.0 11.0 0.00 0.00 0.00 33 1004.0
20260509185006 73 237 4.0 14.0 0.00 0.00 0.00 29 1003.9
20260509184505 74 215 4.0 14.0 0.00 0.00 0.00 31 1003.9
20260509184010 74 283 3.0 10.0 0.00 0.00 0.00 35 1003.8
20260509183505 73 288 3.0 10.0 0.00 0.00 0.00 33 1003.8
20260509183007 72 284 2.0 7.0 0.00 0.00 0.00 35 1003.7
20260509182505 71 294 3.0 10.0 0.00 0.00 0.00 37 1003.8
20260509182005 71 276 3.0 10.0 0.00 0.00 0.00 35 1003.9
20260509181507 71 277 3.0 13.0 0.00 0.00 0.00 34 1003.9
20260509180505 71 285 3.0 11.0 0.00 0.00 0.00 34 1003.9
20260509180007 71 276 3.0 9.0 0.00 0.00 0.00 35 1004.0
20260509175504 71 229 3.0 16.0 0.00 0.00 0.00 34 1004.1
20260509175006 71 200 4.0 16.0 0.00 0.00 0.00 31 1004.2
20260509174509 71 295 3.0 17.0 0.00 0.00 0.00 30 1004.1
20260509174012 72 121 3.0 13.0 0.00 0.00 0.00 33 1004.2
20260509173505 72 259 4.0 11.0 0.00 0.00 0.00 35 1004.1
20260509172505 70 300 3.0 11.0 0.00 0.00 0.00 36 1004.3
20260509172005 71 276 4.0 12.0 0.00 0.00 0.00 38 1004.2
20260509171505 71 298 3.0 12.0 0.00 0.00 0.00 38 1004.2
20260509171007 71 259 3.0 12.0 0.00 0.00 0.00 38 1004.1
20260509170505 70 292 3.0 10.0 0.00 0.00 0.00 43 1004.1
20260509170007 70 283 2.0 10.0 0.00 0.00 0.00 46 1004.1
20260509165504 70 261 2.0 8.0 0.00 0.00 0.00 51 1004.1
20260509165006 69 281 2.0 7.0 0.00 0.00 0.00 54 1004.2
20260509164505 69 218 2.0 6.0 0.00 0.00 0.00 53 1004.2
20260509163505 68 289 2.0 9.0 0.00 0.00 0.00 55 1004.0
20260509163007 67 259 2.0 9.0 0.00 0.00 0.00 54 1004.1
20260509162506 67 290 1.0 6.0 0.00 0.00 0.00 55 1004.3
20260509162005 67 223 2.0 6.0 0.00 0.00 0.00 54 1004.1
20260509161505 67 211 2.0 7.0 0.00 0.00 0.00 54 1004.2
20260509161006 66 227 1.0 7.0 0.00 0.00 0.00 57 1004.2
20260509160505 66 242 2.0 9.0 0.00 0.00 0.00 59 1004.1
20260509160011 65 256 3.0 9.0 0.00 0.00 0.00 60 1004.1
20260509155505 65 202 2.0 6.0 0.00 0.00 0.00 58 1004.2
20260509154505 64 196 2.0 7.0 0.00 0.00 0.00 64 1004.1
20260509154006 64 266 2.0 7.0 0.00 0.00 0.00 64 1004.1
20260509153502 63 219 2.0 7.0 0.00 0.00 0.00 64 1004.1
20260509153006 63 296 2.0 10.0 0.00 0.00 0.00 64 1004.1
20260509152506 63 246 2.0 7.0 0.00 0.00 0.00 64 1004.1
20260509152005 63 215 2.0 7.0 0.00 0.00 0.00 66 1004.2
20260509151005 62 261 3.0 9.0 0.00 0.00 0.00 67 1004.2
20260509150504 62 254 3.0 9.0 0.00 0.00 0.00 67 1004.3
20260509150008 62 263 2.0 9.0 0.00 0.00 0.00 67 1004.4
20260509145507 62 238 2.0 9.0 0.00 0.00 0.00 69 1004.2
20260509145007 61 217 2.0 9.0 0.00 0.00 0.00 71 1004.2
20260509143504 60 283 3.0 9.0 0.00 0.00 0.00 71 1004.1
20260509143006 60 237 3.0 9.0 0.00 0.00 0.00 71 1004.2
20260509142008 60 206 2.0 7.0 0.00 0.00 0.00 74 1004.1
20260509141505 59 229 2.0 7.0 0.00 0.00 0.00 73 1004.0
20260509141006 59 178 2.0 9.0 0.00 0.00 0.00 74 1003.9
20260509140506 59 241 2.0 9.0 0.00 0.00 0.00 76 1003.9
20260509140008 58 245 2.0 6.0 0.00 0.00 0.00 77 1004.1
20260509135504 58 213 2.0 8.0 0.00 0.00 0.00 77 1004.1
20260509135007 58 227 2.0 8.0 0.00 0.00 0.00 76 1003.8
20260509134005 57 198 2.0 8.0 0.00 0.00 0.00 78 1003.8
20260509133506 57 219 2.0 8.0 0.00 0.00 0.00 78 1003.7
20260509133007 57 284 1.0 7.0 0.00 0.00 0.00 80 1003.9
20260509132507 57 198 1.0 7.0 0.00 0.00 0.00 80 1003.8
20260509132014 56 248 2.0 7.0 0.00 0.00 0.00 81 1003.9
20260509131005 56 214 2.0 6.0 0.00 0.00 0.00 81 1004.0
20260509130006 55 289 1.0 5.0 0.00 0.00 0.00 83 1004.0
20260509125500 54 225 1.0 7.0 0.00 0.00 0.00 85 1004.0
20260509125007 54 320 1.0 7.0 0.00 0.00 0.00 85 1004.0
20260509124503 54 246 0.0 4.0 0.00 0.00 0.00 87 1003.9
20260509124005 53 213 1.0 3.0 0.00 0.00 0.00 87 1003.8
20260509123501 53 238 1.0 3.0 0.00 0.00 0.00 88 1003.9
20260509122005 52 239 1.0 7.0 0.00 0.00 0.00 89 1003.7
20260509121504 52 227 1.0 7.0 0.00 0.00 0.00 90 1003.8
20260509121006 52 225 1.0 7.0 0.00 0.00 0.00 90 1003.7
20260509120501 51 237 2.0 5.0 0.00 0.00 0.00 91 1003.8
20260509115505 51 233 1.0 6.0 0.00 0.00 0.00 91 1003.9
20260509115005 51 221 0.0 5.0 0.00 0.00 0.00 91 1003.7
20260509114005 51 217 0.0 4.0 0.00 0.00 0.00 91 1003.7
20260509113504 51 215 1.0 4.0 0.00 0.00 0.00 91 1003.6
20260509113007 51 215 1.0 5.0 0.00 0.00 0.00 91 1003.6
20260509112006 51 232 1.0 5.0 0.00 0.00 0.00 91 1003.5
20260509111505 51 229 1.0 5.0 0.00 0.00 0.00 91 1003.4
20260509110505 51 226 1.0 5.0 0.00 0.00 0.00 91 1003.5
20260509110007 51 222 1.0 5.0 0.00 0.00 0.00 91 1003.5
20260509105504 51 254 1.0 3.0 0.00 0.00 0.00 91 1003.6
20260509104005 51 288 1.0 5.0 0.00 0.00 0.00 91 1003.5
20260509103505 51 227 1.0 5.0 0.00 0.00 0.00 91 1003.2
20260509103005 51 214 1.0 5.0 0.00 0.00 0.00 91 1003.2
20260509102500 51 221 0.0 3.0 0.00 0.00 0.00 91 1003.3
20260509102005 51 219 0.0 2.0 0.00 0.00 0.00 90 1003.2
20260509101505 51 229 0.0 3.0 0.00 0.00 0.00 90 1003.1
20260509101005 51 229 0.0 3.0 0.00 0.00 0.00 91 1003.1
20260509100500 51 250 0.0 4.0 0.00 0.00 0.00 91 1003.2
20260509100013 51 221 0.0 4.0 0.00 0.00 0.00 91 1003.3
20260509095505 51 218 0.0 1.0 0.00 0.00 0.00 90 1003.3
20260509095007 51 218 0.0 3.0 0.00 0.00 0.00 91 1003.4
20260509094507 51 221 0.0 3.0 0.00 0.00 0.00 91 1003.4
20260509094005 51 221 0.0 2.0 0.00 0.00 0.00 90 1003.5
20260509093007 51 221 0.0 4.0 0.00 0.00 0.00 90 1003.7
20260509092505 51 221 0.0 4.0 0.00 0.00 0.00 90 1003.7
20260509091006 51 271 0.0 3.0 0.00 0.00 0.00 90 1003.9
20260509085501 50 223 0.0 3.0 0.00 0.00 0.00 90 1003.9
20260509085006 50 223 0.0 1.0 0.00 0.00 0.00 90 1003.9
20260509084505 50 223 0.0 4.0 0.00 0.00 0.00 89 1004.0
20260509083505 51 249 0.0 2.0 0.00 0.00 0.00 89 1004.0
20260509083005 51 249 0.0 2.0 0.00 0.00 0.00 89 1004.1
20260509082501 51 249 0.0 3.0 0.00 0.00 0.00 89 1004.1
20260509082005 51 249 0.0 3.0 0.00 0.00 0.00 89 1004.0
20260509081504 51 250 0.0 4.0 0.00 0.00 0.00 88 1004.0
20260509080504 51 230 0.0 4.0 0.00 0.00 0.00 88 1004.0
20260509080005 51 221 0.0 4.0 0.00 0.00 0.00 88 1004.1
20260509075505 51 223 0.0 4.0 0.00 0.00 0.00 88 1004.0
20260509075004 51 227 0.0 1.0 0.00 0.00 0.00 87 1004.0
20260509074500 51 227 0.0 3.0 0.00 0.00 0.00 87 1004.1
20260509074006 51 227 0.0 3.0 0.00 0.00 0.00 87 1004.2
20260509073505 51 232 0.0 2.0 0.00 0.00 0.00 86 1004.3
20260509073007 52 232 0.0 2.0 0.00 0.00 0.00 86 1004.3
20260509072506 52 232 0.0 1.0 0.00 0.00 0.00 86 1004.2
20260509071505 52 232 0.0 1.0 0.00 0.00 0.00 85 1004.4
20260509071006 52 232 0.0 2.0 0.00 0.00 0.00 85 1004.6
20260509070007 52 232 0.0 2.0 0.00 0.00 0.00 85 1004.7
20260509065502 52 232 1.0 2.0 0.00 0.00 0.00 85 1004.8
20260509065005 53 227 0.0 2.0 0.00 0.00 0.00 85 1004.9
20260509064504 53 227 0.0 3.0 0.00 0.00 0.00 84 1004.8
20260509064005 53 227 0.0 3.0 0.00 0.00 0.00 84 1004.8
20260509063503 53 227 0.0 3.0 0.00 0.00 0.00 84 1004.9
20260509063005 53 226 0.0 2.0 0.00 0.00 0.00 84 1004.9
20260509062505 53 225 1.0 4.0 0.00 0.00 0.00 83 1004.9
20260509061507 53 225 1.0 5.0 0.00 0.00 0.00 84 1005.1
20260509061010 53 221 1.0 3.0 0.00 0.00 0.00 83 1005.1
20260509060501 53 240 1.0 5.0 0.00 0.00 0.00 83 1005.1
20260509055507 54 216 0.0 3.0 0.00 0.00 0.00 83 1005.2
20260509054507 54 213 0.0 6.0 0.00 0.00 0.00 83 1005.4
20260509054005 54 229 1.0 8.0 0.00 0.00 0.00 82 1005.4
20260509053506 54 230 1.0 8.0 0.00 0.00 0.00 82 1005.4
20260509053006 54 219 1.0 5.0 0.00 0.00 0.00 82 1005.4
20260509052506 54 217 1.0 5.0 0.00 0.00 0.00 82 1005.4
20260509052005 54 224 1.0 5.0 0.00 0.00 0.00 82 1005.4
20260509051505 54 208 1.0 7.0 0.00 0.00 0.00 81 1005.4
20260509051006 55 223 1.0 7.0 0.00 0.00 0.00 81 1005.3
20260509045505 55 232 1.0 5.0 0.00 0.00 0.00 80 1005.3
20260509045006 55 216 1.0 5.0 0.00 0.00 0.00 79 1005.3
20260509043505 56 246 1.0 4.0 0.00 0.00 0.00 77 1005.2
20260509043006 56 244 1.0 4.0 0.00 0.00 0.00 76 1005.3
20260509042505 56 240 1.0 4.0 0.00 0.00 0.00 76 1005.4
20260509042006 56 222 1.0 8.0 0.00 0.00 0.00 75 1005.4
20260509041506 56 228 1.0 8.0 0.00 0.00 0.00 75 1005.4
20260509041006 56 226 1.0 5.0 0.00 0.00 0.00 75 1005.4
20260509040505 57 232 1.0 4.0 0.00 0.00 0.00 74 1005.4
20260509040006 57 212 1.0 6.0 0.00 0.00 0.00 73 1005.5
20260509035006 57 227 1.0 6.0 0.00 0.00 0.00 71 1005.6
20260509034505 57 223 1.0 6.0 0.00 0.00 0.00 71 1005.6
20260509034006 57 219 1.0 6.0 0.00 0.00 0.00 70 1005.5
20260509033505 57 232 1.0 4.0 0.00 0.00 0.00 70 1005.5
20260509033005 58 230 1.0 6.0 0.00 0.00 0.00 70 1005.5
20260509032506 58 213 1.0 6.0 0.00 0.00 0.00 69 1005.5
20260509032005 58 221 1.0 6.0 0.00 0.00 0.00 69 1005.5
20260509031505 58 217 1.0 6.0 0.00 0.00 0.00 69 1005.6
20260509031006 58 225 1.0 3.0 0.00 0.00 0.00 69 1005.6
20260509030505 58 213 1.0 5.0 0.00 0.00 0.00 68 1005.5
20260509030005 58 232 1.0 5.0 0.00 0.00 0.00 67 1005.6
20260509025504 58 328 0.0 4.0 0.00 0.00 0.00 66 1005.6
20260509024505 59 211 0.0 2.0 0.00 0.00 0.00 62 1005.6
20260509024005 58 211 0.0 2.0 0.00 0.00 0.00 61 1005.6
20260509023506 58 211 0.0 4.0 0.00 0.00 0.00 60 1005.7
20260509023006 58 211 0.0 4.0 0.00 0.00 0.00 60 1005.7
20260509022006 59 234 0.0 0.0 0.00 0.00 0.00 60 1005.7
20260509021504 59 234 0.0 0.0 0.00 0.00 0.00 58 1005.7
20260509021005 59 234 0.0 0.0 0.00 0.00 0.00 58 1005.6
20260509020506 59 234 0.0 0.0 0.00 0.00 0.00 58 1005.7
20260509020008 60 234 0.0 0.0 0.00 0.00 0.00 56 1005.7
20260509015505 60 234 0.0 0.0 0.00 0.00 0.00 56 1005.6
20260509015008 60 234 0.0 0.0 0.00 0.00 0.00 56 1005.6
20260509014505 60 234 0.0 1.0 0.00 0.00 0.00 56 1005.7
20260509014005 60 234 0.0 1.0 0.00 0.00 0.00 56 1005.6
20260509013504 61 236 0.0 1.0 0.00 0.00 0.00 54 1005.6
20260509013005 61 236 0.0 1.0 0.00 0.00 0.00 55 1005.6
20260509012506 61 236 0.0 2.0 0.00 0.00 0.00 54 1005.6
20260509011504 62 236 0.0 2.0 0.00 0.00 0.00 53 1005.6
20260509011005 62 236 1.0 3.0 0.00 0.00 0.00 52 1005.6
20260509010506 62 227 1.0 5.0 0.00 0.00 0.00 52 1005.5
20260509010005 62 228 1.0 5.0 0.00 0.00 0.00 51 1005.3
20260509005005 63 246 1.0 5.0 0.00 0.00 0.00 50 1005.5
20260509004506 63 284 1.0 5.0 0.00 0.00 0.00 50 1005.5
20260509004005 63 207 0.0 5.0 0.00 0.00 0.00 50 1005.4
20260509003504 63 214 0.0 5.0 0.00 0.00 0.00 50 1005.4
20260509003006 63 228 0.0 3.0 0.00 0.00 0.00 50 1005.5
20260509002505 63 227 0.0 3.0 0.00 0.00 0.00 49 1005.5
20260509001505 64 225 0.0 1.0 0.00 0.00 0.00 49 1005.6
20260509001005 64 225 0.0 2.0 0.00 0.00 0.00 48 1005.6
20260509000505 64 225 0.0 2.0 0.00 0.00 0.00 48 1005.6
20260508235505 64 225 0.0 3.0 0.00 0.00 0.00 48 1005.6
20260508235005 64 225 0.0 1.0 0.00 0.00 0.00 48 1005.6
20260508234005 64 225 1.0 4.0 0.00 0.00 0.00 49 1005.7
20260508233505 64 227 0.0 5.0 0.00 0.00 0.00 49 1005.7
20260508232505 65 231 1.0 5.0 0.00 0.00 0.00 49 1005.8
20260508232005 65 229 0.0 5.0 0.00 0.00 0.00 47 1005.7
20260508231506 65 240 1.0 3.0 0.00 0.00 0.00 47 1005.8
20260508231005 65 234 1.0 6.0 0.00 0.00 0.00 46 1005.8
20260508230504 66 231 2.0 6.0 0.00 0.00 0.00 47 1005.8
20260508230006 67 235 2.0 5.0 0.00 0.00 0.00 46 1005.8
20260508225507 67 243 2.0 5.0 0.00 0.00 0.00 45 1005.8
20260508225004 67 213 1.0 5.0 0.00 0.00 0.00 44 1005.8
20260508224511 67 221 1.0 5.0 0.00 0.00 0.00 43 1005.8
20260508224006 67 205 1.0 5.0 0.00 0.00 0.00 46 1005.9
20260508223505 67 244 1.0 5.0 0.00 0.00 0.00 46 1005.9
20260508222504 67 285 0.0 3.0 0.00 0.00 0.00 46 1005.9
20260508222011 66 229 0.0 3.0 0.00 0.00 0.00 47 1005.9
20260508221505 65 229 0.0 3.0 0.00 0.00 0.00 48 1005.9
20260508221006 65 228 0.0 2.0 0.00 0.00 0.00 47 1006.0
20260508220505 65 228 1.0 4.0 0.00 0.00 0.00 49 1006.0
20260508220009 65 229 1.0 4.0 0.00 0.00 0.00 49 1006.0
20260508215005 65 230 1.0 5.0 0.00 0.02 0.00 47 1006.2
20260508214505 65 239 1.0 6.0 0.00 0.02 0.00 47 1006.3
20260508214005 65 248 1.0 6.0 0.00 0.02 0.00 46 1006.2
20260508213504 65 213 1.0 7.0 0.00 0.02 0.00 46 1006.2
20260508212504 65 273 1.0 4.0 0.00 0.02 0.00 46 1006.3
20260508212007 65 275 0.0 4.0 0.00 0.02 0.00 46 1006.2
20260508211005 65 227 0.0 1.0 0.00 0.02 0.00 47 1006.3
20260508210506 65 227 0.0 4.0 0.00 0.02 0.00 46 1006.3
20260508210008 66 227 0.0 4.0 0.00 0.02 0.00 43 1006.3
20260508205505 67 275 1.0 3.0 0.00 0.02 0.00 45 1006.4
20260508205005 67 269 1.0 3.0 0.00 0.02 0.00 43 1006.3
20260508204504 66 267 1.0 3.0 0.00 0.02 0.00 42 1006.3
20260508203504 65 229 0.0 4.0 0.00 0.02 0.00 47 1006.5
20260508202005 66 257 1.0 3.0 0.00 0.02 0.00 45 1006.7
20260508201506 66 257 1.0 9.0 0.00 0.02 0.00 42 1006.7